Flag for Canada

Past Weather in Montréal, Quebec, Canada — Yesterday and Last 2 Weeks

Now
75 °F

Mostly cloudy.


Feels Like: 76 °F
Forecast: 86 / 71 °F
Wind: 2 mph from North

Location: Montreal - Pierre Elliot Trudeau International Aiport

Current Time: Jul 8, 2020 at 5:16:34 am

Latest Report: Jul 8, 2020 at 4:00 am


Visibility: 15 mi

Pressure: 29.88 "Hg

Humidity: 78%

Dew Point: 68 °F

Location of MontréalLocation

Past Weather in Montréal — Graph

°F

Montréal Temperature Yesterday

Maximum temperature yesterday: 91 °F (at 4:00 pm)
Minimum temperature yesterday: 63 °F (at 5:00 am)
Average temperature yesterday: 79 °F

High & Low Weather Summary for the Past Weeks

 TemperatureHumidityPressure
High91 °F (Jul 7, 4:00 pm)100% (Jun 28, 2:44 am)30.09 "Hg (Jun 28, 2:44 am)
Low59 °F (Jul 6, 5:00 am)24% (Jul 4, 6:00 pm)29.51 "Hg (Jun 24, 12:44 am)
Average73 °F65%29.83 "Hg
* Reported Jun 23 4:00 am — Jul 8 4:00 am, Montréal. Weather by CustomWeather, © 2020

Note: Actual official high and low records may vary slightly from our data, if they occured in-between our weather recording intervals... More about our weather records

Montréal Weather History for the Previous 24 Hours

Scroll right to see more
 ConditionsComfort  
Time TempWeatherWind HumidityBarometerVisibility
4:00 am
Wed, Jul 8
75 °FMostly cloudy.2 mph78%29.88 "Hg15 mi
3:00 am77 °FPartly cloudy.No wind74%29.89 "Hg15 mi
2:00 am75 °FPassing clouds.8 mph78%29.88 "Hg15 mi
1:00 am77 °FPartly cloudy.9 mph74%29.88 "Hg15 mi
12:00 am77 °FPassing clouds.8 mph69%29.88 "Hg15 mi
11:00 pm
Tue, Jul 7
79 °FPartly cloudy.10 mph65%29.88 "Hg15 mi
10:00 pm81 °FPassing clouds.8 mph62%29.88 "Hg15 mi
9:00 pm82 °FOvercast.13 mph58%29.88 "Hg30 mi
8:00 pm84 °FPartly sunny.14 mph55%29.87 "Hg30 mi
7:00 pm88 °FOvercast.15 mph52%29.87 "Hg30 mi
6:00 pm90 °FPartly sunny.14 mph43%29.88 "Hg30 mi
5:00 pm91 °FPartly sunny.13 mph41%29.88 "Hg30 mi
4:00 pm91 °FPartly sunny.9 mph38%29.92 "Hg30 mi
3:00 pm90 °FPartly sunny.8 mph41%29.94 "Hg30 mi
2:00 pm90 °FScattered clouds.14 mph41%29.95 "Hg30 mi
1:00 pm86 °FPartly sunny.8 mph43%29.96 "Hg30 mi
12:00 pm86 °FPartly sunny.9 mph40%29.99 "Hg30 mi
11:00 am82 °FPartly sunny.8 mph45%30.00 "Hg30 mi
9:00 am73 °FPartly sunny.5 mph57%30.03 "Hg15 mi
8:00 am70 °FPartly sunny.6 mph64%30.04 "Hg15 mi
7:00 am70 °FPartly sunny.7 mph64%30.04 "Hg30 mi
6:00 am66 °FPartly sunny.7 mph73%30.04 "Hg30 mi
5:00 am63 °FPassing clouds.8 mph77%30.05 "Hg15 mi
Weather by CustomWeather, © 2020

See weather overview